[[{"header":{"parameterUnit":"m.s-1","parameterCategory":1,"la1":30.2991,"la2":30.254,"lo1":-89.0895,"lo2":-89.0444,"dy":0.0017,"dx":0.0017,"nx":28,"ny":28,"refTime":"2024-05-20T03:00:00:Z","depth":0,"parameterNumber":2,"parameterNumberName":"U-component_of_WINDS"},"data":[0,0,0,0,0,0,0,0,0,0,0,0,0,0,0,0,0,0,0,0,0,0,0,0,0,0,0,0,0,0,0,0,0,0,0,0,0,0,0,0,0,0,0,0,0,0,0,0,0,0,0,0,0,0,0,0,0,0,-1.6052,-1.6052,0,-1.6047,-1.6047,-1.6047,-1.6011,-1.601,-1.6009,-1.6008,-1.6004,-1.6005,-1.6005,0,0,0,0,0,0,0,0,0,0,0,0,0,-1.603,-1.6031,-1.6052,-1.6052,-1.6052,-1.6047,-1.6047,-1.6047,-1.6011,-1.601,-1.6009,-1.6007,-1.6004,-1.6005,-1.6006,0,0,0,0,0,0,0,0,0,0,0,0,0,-1.6034,-1.6031,-1.6052,-1.6033,-1.6031,-1.6047,-1.6047,-1.6047,-1.6011,-1.601,-1.6008,-1.6007,-1.6003,-1.6005,-1.6006,-1.604,0,0,-1.6009,-1.601,0,0,0,0,0,0,0,0,-1.6034,-1.6035,-1.6036,-1.6034,-1.6033,-1.6028,-1.6038,-1.6045,-1.6011,-1.6019,-1.6008,-1.6006,-1.6013,-1.6013,-1.6016,-1.604,-1.6039,-1.6009,-1.601,-1.601,-1.6011,0,0,0,0,0,0,0,-1.6034,-1.6035,-1.605,-1.6036,-1.6034,-1.6025,-1.6024,-1.6039,-1.6024,-1.6018,-1.6015,-1.6015,-1.6012,-1.6015,-1.6015,-1.6039,-1.6009,-1.601,-1.6011,-1.6011,-1.6091,-1.6093,0,0,0,0,0,0,-1.6036,-1.6035,-1.605,-1.605,-1.603,-1.6027,-1.6026,-1.6031,-1.6023,-1.6021,-1.6016,-1.6014,-1.6013,-1.6014,-1.6015,-1.6054,-1.601,-1.6011,-1.6012,-1.609,-1.6092,-1.6093,0,0,0,0,0,0,-1.6036,-1.6038,-1.6051,-1.6042,-1.6043,-1.6029,-1.6035,-1.6032,-1.6034,-1.6022,-1.6019,-1.6022,-1.6012,-1.6013,-1.6034,-1.6053,-1.6012,-1.6013,-1.6088,-1.609,-1.6092,-1.6133,0,0,0,0,0,0,-1.6035,-1.6038,-1.605,-1.6042,-1.6043,-1.6069,-1.6036,-1.6032,-1.6036,-1.6032,-1.6026,-1.6024,-1.6011,-1.6032,-1.6035,-1.6054,-1.6014,-1.6086,-1.6089,-1.6092,-1.613,-1.6136,-1.6142,0,0,0,0,0,-1.6035,-1.6062,-1.6051,-1.6053,-1.6059,-1.607,-1.6071,-1.6055,-1.6038,-1.605,-1.6043,-1.6024,-1.6051,-1.6035,-1.6037,-1.6057,-1.6085,-1.6088,-1.6091,-1.6127,-1.6135,-1.6142,0,0,0,0,0,0,-1.6073,-1.6061,-1.6048,-1.6074,-1.6074,-1.6064,-1.608,-1.6064,-1.6069,-1.6065,-1.6046,-1.6045,-1.6068,-1.6065,-1.6047,-1.609,-1.6065,-1.6069,-1.6091,-1.6099,-1.6105,-1.6105,-1.6015,0,0,0,0,0,-1.6085,-1.6095,-1.6084,-1.6108,-1.6108,-1.6094,-1.6098,-1.6086,-1.6085,-1.6085,-1.6079,-1.6079,-1.6087,-1.6093,-1.61,-1.613,-1.6128,-1.6145,-1.6151,-1.6156,-1.6159,-1.6175,-1.6182,-1.6104,-1.6104,-1.6104,0,0,-1.6108,-1.6103,-1.6111,-1.6115,-1.6113,-1.6125,-1.6094,-1.6107,-1.6115,-1.6087,-1.6106,-1.6101,-1.61,-1.6125,-1.6136,-1.6123,-1.6181,-1.616,-1.6164,-1.6165,-1.6179,-1.6186,-1.6193,-1.6106,-1.6106,-1.6105,0,0,-1.6157,-1.6154,-1.6174,-1.6172,-1.617,-1.6161,-1.6166,-1.6159,-1.6154,-1.6173,-1.6152,-1.6162,-1.6176,-1.6176,-1.6178,-1.6228,-1.6211,-1.6231,-1.6262,-1.6277,-1.6283,-1.6289,-1.6306,-1.6313,-1.6234,-1.6234,-1.6234,0,-1.6187,-1.6203,-1.6186,-1.62,-1.6203,-1.6178,-1.6197,-1.6197,-1.6197,-1.62,-1.6186,-1.6204,-1.6201,-1.6226,-1.6238,-1.624,-1.6245,-1.6231,-1.6284,-1.6289,-1.6294,-1.631,-1.6317,-1.6237,-1.6236,-1.6236,-1.6236,0,-1.624,-1.6251,-1.6267,-1.6268,-1.6272,-1.629,-1.6275,-1.6282,-1.627,-1.6262,-1.6282,-1.6278,-1.6283,-1.6289,-1.6277,-1.6312,-1.6304,-1.6287,-1.6261,-1.6304,-1.6319,-1.6325,-1.624,-1.6239,-1.6239,-1.6238,0,0,-1.6312,-1.6303,-1.6309,-1.6309,-1.6305,-1.6313,-1.633,-1.6335,-1.6341,-1.6343,-1.6356,-1.6369,-1.6354,-1.6356,-1.6344,-1.6358,-1.6397,-1.6339,-1.6339,-1.635,-1.6435,-1.6448,-1.6455,-1.6386,-1.6387,-1.6388,-1.6435,0,-1.6359,-1.6385,-1.6371,-1.64,-1.641,-1.6386,-1.6401,-1.64,-1.6393,-1.6402,-1.6395,-1.6404,-1.6383,-1.6384,-1.6397,-1.639,-1.6414,-1.6386,-1.6398,-1.6399,-1.6399,-1.6463,-1.6476,-1.652,-1.6441,-1.6442,-1.6443,0,-1.6417,-1.642,-1.645,-1.6444,-1.6448,-1.6461,-1.6464,-1.6472,-1.6471,-1.6466,-1.6468,-1.6453,-1.6469,-1.6444,-1.6466,-1.6448,-1.6452,-1.6449,-1.6451,-1.6451,-1.6423,-1.6464,-1.6534,-1.6541,-1.6452,-1.6451,-1.6451,0,-1.6466,-1.6478,-1.6498,-1.6498,-1.6492,-1.6501,-1.6499,-1.6497,-1.6501,-1.6504,-1.6507,-1.6513,-1.6516,-1.6521,-1.6508,-1.6491,-1.6531,-1.6505,-1.6527,-1.6527,-1.6536,-1.6536,-1.6607,-1.654,-1.654,-1.654,-1.654,0,-1.6519,-1.6539,-1.652,-1.6532,-1.6552,-1.6536,-1.6557,-1.6552,-1.655,-1.6561,-1.6541,-1.6552,-1.6535,-1.6544,-1.6534,-1.6553,-1.6555,-1.6551,-1.6548,-1.6553,-1.6553,-1.6555,-1.6551,-1.6541,-1.6541,-1.6541,-1.654,0,-1.6578,-1.6566,-1.6585,-1.6578,-1.6576,-1.6592,-1.6585,-1.6596,-1.6589,-1.6603,-1.6605,-1.6593,-1.6603,-1.6591,-1.6599,-1.6593,-1.6619,-1.6612,-1.6619,-1.6617,-1.6639,-1.6637,-1.6714,-1.6723,-1.6651,-1.6651,-1.6652,0,-1.6613,-1.6627,-1.662,-1.6626,-1.6625,-1.6634,-1.6638,-1.6623,-1.6628,-1.6628,-1.6639,-1.6647,-1.6652,-1.6669,-1.6661,-1.6668,-1.666,-1.6687,-1.6661,-1.6665,-1.666,-1.666,-1.6661,-1.6692,-1.6693,-1.6694,-1.6694,0,-1.6675,-1.6669,-1.6675,-1.668,-1.6685,-1.6688,-1.669,-1.6696,-1.668,-1.6687,-1.6696,-1.67,-1.6709,-1.6717,-1.6722,-1.672,-1.6705,-1.6702,-1.6708,-1.6712,-1.6716,-1.6714,-1.6633,-1.6701,-1.67,-1.6699,-1.6699,-1.6699,-1.6723,-1.6734,-1.6731,-1.6739,-1.6739,-1.6741,-1.6751,-1.6744,-1.6752,-1.6757,-1.6748,-1.676,-1.6759,-1.6763,-1.6763,-1.6772,-1.6761,-1.6769,-1.6771,-1.6773,-1.6776,-1.6715,-1.6773,-1.6773,-1.6773,-1.6773,-1.6772,0,-1.6784,-1.6781,-1.6789,-1.6791,-1.6798,-1.6783,-1.6784,-1.679,-1.6801,-1.6801,-1.6807,-1.6818,-1.6826,-1.6819,-1.6825,-1.6834,-1.6827,-1.6836,-1.6835,-1.6835,-1.6786,-1.678,-1.6842,-1.6842,-1.6842,-1.6842,-1.6842,-1.6842,-1.6817,-1.6835,-1.6829,-1.6847,-1.6844,-1.6855,-1.6857,-1.6859,-1.6858,-1.6871,-1.6878,-1.6873,-1.6871,-1.6877,-1.6884,-1.6881,-1.6885,-1.6896,-1.6892,-1.6845,-1.6839,-1.6832,-1.6827,-1.6897,-1.6897,-1.694,-1.694,-1.6941]},{"header":{"parameterUnit":"m.s-1","parameterCategory":1,"la1":30.2991,"la2":30.254,"lo1":-89.0895,"lo2":-89.0444,"dy":0.0017,"dx":0.0017,"nx":28,"ny":28,"refTime":"2024-05-20T03:00:00:Z","depth":0,"parameterNumber":3,"parameterNumberName":"V-component_of_WINDS"},"data":[0,0,0,0,0,0,0,0,0,0,0,0,0,0,0,0,0,0,0,0,0,0,0,0,0,0,0,0,0,0,0,0,0,0,0,0,0,0,0,0,0,0,0,0,0,0,0,0,0,0,0,0,0,0,0,0,0,0,2.182,2.182,0,2.1852,2.1852,2.1853,2.185,2.185,2.1849,2.1849,2.1879,2.188,2.1882,0,0,0,0,0,0,0,0,0,0,0,0,0,2.1755,2.1756,2.182,2.182,2.1821,2.1852,2.1852,2.1853,2.185,2.185,2.1849,2.1849,2.1879,2.188,2.1882,0,0,0,0,0,0,0,0,0,0,0,0,0,2.1784,2.1756,2.182,2.1823,2.1824,2.1852,2.1852,2.1853,2.1851,2.185,2.1849,2.1848,2.1878,2.188,2.1882,2.1908,0,0,2.1888,2.1889,0,0,0,0,0,0,0,0,2.1783,2.1787,2.1822,2.1823,2.1824,2.1846,2.184,2.1871,2.1851,2.184,2.1849,2.1848,2.1869,2.1871,2.1879,2.1909,2.191,2.1888,2.1889,2.189,2.189,0,0,0,0,0,0,0,2.1781,2.1785,2.1832,2.1823,2.1824,2.1823,2.1826,2.1846,2.1858,2.1841,2.1841,2.1845,2.1869,2.1877,2.1879,2.1911,2.1888,2.189,2.1891,2.1891,2.1964,2.1964,0,0,0,0,0,0,2.1778,2.1784,2.1831,2.1833,2.1801,2.1824,2.1828,2.184,2.1858,2.186,2.1846,2.1845,2.1874,2.1877,2.1881,2.1912,2.189,2.1892,2.1893,2.1963,2.1964,2.1965,0,0,0,0,0,0,2.1777,2.1782,2.183,2.1809,2.1815,2.1826,2.1839,2.1841,2.1849,2.1861,2.1863,2.1852,2.1874,2.1878,2.1901,2.1913,2.1892,2.1894,2.1962,2.1963,2.1964,2.1975,0,0,0,0,0,0,2.1775,2.1782,2.1792,2.1809,2.1816,2.1851,2.184,2.1842,2.1852,2.1852,2.1867,2.1869,2.1874,2.1898,2.1903,2.1915,2.1896,2.1961,2.1962,2.1964,2.1973,2.1976,2.1978,0,0,0,0,0,2.1773,2.1793,2.1793,2.1799,2.1829,2.1851,2.1855,2.186,2.1853,2.1864,2.1871,2.1869,2.1911,2.1901,2.1906,2.1919,2.196,2.1962,2.1964,2.1972,2.1976,2.1978,0,0,0,0,0,0,2.1777,2.1796,2.1795,2.1822,2.1835,2.1851,2.1864,2.1864,2.1879,2.1877,2.1882,2.1886,2.1909,2.1916,2.1904,2.1945,2.1934,2.1937,2.1939,2.1942,2.1945,2.1943,2.1897,0,0,0,0,0,2.1781,2.1798,2.1813,2.1836,2.1842,2.1852,2.1862,2.1865,2.1878,2.1884,2.1893,2.1906,2.1922,2.1933,2.1948,2.1974,2.1978,2.1986,2.1988,2.199,2.1993,2.2007,2.2011,2.1971,2.1971,2.197,0,0,2.1789,2.1802,2.1812,2.1837,2.1847,2.1865,2.1857,2.1875,2.1888,2.1886,2.1909,2.1917,2.1931,2.1956,2.1967,2.1963,2.2005,2.1993,2.1994,2.1996,2.201,2.2014,2.2017,2.1972,2.1972,2.1971,0,0,2.1814,2.1825,2.1845,2.1856,2.1873,2.1879,2.1884,2.19,2.1905,2.1928,2.1928,2.1942,2.197,2.198,2.1989,2.2018,2.2017,2.2023,2.2037,2.2051,2.2054,2.2057,2.2068,2.2071,2.2026,2.2026,2.2026,0,2.1823,2.185,2.1855,2.1875,2.1885,2.1885,2.1905,2.1915,2.1936,2.1943,2.1937,2.1972,2.1982,2.201,2.2017,2.2024,2.2029,2.2022,2.2053,2.2056,2.2059,2.2069,2.2073,2.2026,2.2026,2.2026,2.2026,0,2.1859,2.1878,2.1892,2.1913,2.1925,2.1944,2.1953,2.1964,2.1966,2.1973,2.1996,2.2008,2.2026,2.2032,2.2034,2.206,2.2057,2.2052,2.2042,2.2064,2.2073,2.2077,2.2027,2.2027,2.2027,2.2027,0,0,2.1887,2.1912,2.1917,2.1926,2.1945,2.1959,2.1978,2.1997,2.2007,2.202,2.2037,2.206,2.2056,2.2066,2.2069,2.2082,2.2104,2.2075,2.2076,2.2081,2.2134,2.2138,2.2142,2.2103,2.2104,2.2104,2.2133,0,2.1914,2.195,2.1955,2.1986,2.2003,2.2004,2.202,2.2033,2.204,2.2055,2.2062,2.2079,2.2072,2.2079,2.2091,2.2099,2.2115,2.2097,2.2118,2.2119,2.2115,2.2147,2.2151,2.2178,2.2137,2.2138,2.2138,0,2.195,2.1966,2.1999,2.2016,2.2023,2.2038,2.2056,2.207,2.2085,2.2089,2.21,2.2102,2.2121,2.211,2.2137,2.2125,2.2133,2.2139,2.214,2.2142,2.213,2.2151,2.2186,2.219,2.2144,2.2143,2.2143,0,2.1968,2.1998,2.2021,2.2029,2.2049,2.206,2.2068,2.2082,2.2093,2.2108,2.2115,2.2132,2.2141,2.2154,2.2159,2.2151,2.2186,2.2175,2.219,2.219,2.2197,2.2197,2.2235,2.2202,2.2202,2.2202,2.2202,0,2.1998,2.2018,2.203,2.2044,2.2067,2.2073,2.2095,2.2103,2.2115,2.2131,2.2131,2.2146,2.2152,2.2168,2.2172,2.2194,2.2198,2.2201,2.2202,2.2201,2.2201,2.2208,2.2206,2.2203,2.2203,2.2203,2.2203,0,2.2022,2.2031,2.2056,2.2073,2.2078,2.2094,2.2108,2.2121,2.2128,2.2148,2.2153,2.2163,2.2181,2.2188,2.221,2.2213,2.2238,2.2237,2.2234,2.2234,2.2248,2.2247,2.2292,2.2298,2.2261,2.2262,2.2262,0,2.204,2.2056,2.2075,2.2086,2.2095,2.2112,2.2124,2.213,2.2142,2.216,2.2171,2.219,2.2205,2.2234,2.2243,2.2259,2.2259,2.2274,2.2262,2.2261,2.226,2.2259,2.2261,2.2276,2.2277,2.2277,2.2277,0,2.2073,2.2076,2.2093,2.2112,2.2125,2.214,2.2154,2.2163,2.2171,2.2184,2.2204,2.2215,2.2238,2.2256,2.2273,2.2281,2.2281,2.2281,2.2285,2.2285,2.2282,2.2284,2.224,2.228,2.228,2.2279,2.2279,2.2279,2.2095,2.2109,2.2124,2.2143,2.2155,2.2168,2.2182,2.2191,2.2207,2.2227,2.2229,2.225,2.2264,2.2287,2.2296,2.2311,2.2307,2.2314,2.2315,2.2317,2.2318,2.2279,2.2314,2.2314,2.2314,2.2314,2.2314,0,2.2127,2.2138,2.2155,2.2175,2.219,2.2189,2.2204,2.2216,2.2235,2.2248,2.2263,2.2285,2.2303,2.2313,2.2331,2.2341,2.2342,2.2346,2.2345,2.2347,2.232,2.2315,2.2345,2.2345,2.2345,2.2345,2.2345,2.2345,2.2146,2.217,2.2176,2.2205,2.2215,2.2236,2.2245,2.2257,2.2268,2.2293,2.2308,2.2315,2.2327,2.2345,2.2361,2.2364,2.2371,2.2375,2.2378,2.2352,2.2349,2.2346,2.2341,2.2377,2.2377,2.2403,2.2403,2.2404]}]]